Weather History for Albany, GA

Change the Weather History Date:

Thursday, March 13, 2014

  Actual Average Record
Temperature  
Mean Temperature 50 °F 59 °F  
Max Temperature 62 °F 72 °F 88 °F (1990)
Min Temperature 37 °F 46 °F 23 °F (1969)
Degree Days  
Heating Degree Days 16 7  
Month to date heating degree days 112  
Since 1 July heating degree days 1672  
Cooling Degree Days 0 1  
Month to date cooling degree days 13  
Year to date cooling degree days 22  
Moisture  
Dew Point 26 °F    
Average Humidity 44    
Maximum Humidity 67    
Minimum Humidity 21    
Precipitation  
Precipitation 0.00 in 0.17 in 0.31 in (2003)
Month to date precipitation 1.89  
Year to date precipitation 10.87  
Sea Level Pressure  
Sea Level Pressure 30.17 in    
Wind  
Wind Speed 9 mph (NW)    
Max Wind Speed 16 mph    
Max Gust Speed 26 mph    
Visibility 10 miles    
Events      
T = Trace of Precipitation, MM = Missing Value Source: NWS Daily Summary

Daily Weather History Graph

Daily Weather History Graph

Search for Another Location

Airport:

Trip Planner

Search our weather history database for the weather conditions in past years. The results will help you decide how hot, cold, wet, or windy it might be!

Date:

Astronomy

Mar. 13, 2014 Rise Set
Actual Time 7:49 AM EDT 7:43 PM EDT
Civil Twilight 7:25 AM EDT 8:07 PM EDT
Nautical Twilight 6:56 AM EDT 8:35 PM EDT
Astronomical Twilight 6:28 AM EDT 9:04 PM EDT
Moon 5:15 PM EDT (3/13) 5:47 AM EDT (3/13)
Length of Visible Light 12h 42m
Length of Day
11h 54m
Waxing Gibbous, 91% of the Moon is Illuminated
Mar 13
Waxing Gibbous
Mar 16
Full
Mar 23
Last Quarter
Mar 30
New
Apr 7
First Quarter

Hourly Weather History & Observations

Time (EDT) Temp. Windchill Dew Point Humidity Pressure Visibility Wind Dir Wind Speed Gust Speed Precip Events Conditions
12:53 AM 46.9 °F - 30.9 °F 54% 30.02 in 10.0 mi NW 11.5 mph 19.6 mph N/A   Clear
1:53 AM 46.0 °F 41.4 °F 26.1 °F 46% 30.04 in 10.0 mi NW 9.2 mph - N/A   Clear
2:53 AM 44.1 °F 39.5 °F 28.9 °F 55% 30.05 in 10.0 mi NW 8.1 mph - N/A   Clear
3:53 AM 44.1 °F 39.0 °F 26.1 °F 49% 30.06 in 10.0 mi NW 9.2 mph 20.7 mph N/A   Clear
4:53 AM 43.0 °F 37.2 °F 26.1 °F 51% 30.09 in 10.0 mi NW 10.4 mph - N/A   Clear
5:53 AM 41.0 °F 34.7 °F 26.1 °F 55% 30.11 in 10.0 mi NW 10.4 mph - N/A   Clear
6:53 AM 39.9 °F 35.1 °F 26.1 °F 58% 30.13 in 10.0 mi WNW 6.9 mph - N/A   Clear
7:53 AM 37.9 °F 32.7 °F 26.1 °F 62% 30.16 in 10.0 mi WNW 6.9 mph - N/A   Clear
8:53 AM 41.0 °F 35.8 °F 26.1 °F 55% 30.19 in 10.0 mi WNW 8.1 mph - N/A   Clear
9:53 AM 45.0 °F 38.5 °F 25.0 °F 46% 30.22 in 10.0 mi NNW 13.8 mph 17.3 mph N/A   Clear
10:53 AM 48.0 °F - 25.0 °F 41% 30.22 in 10.0 mi NNW 16.1 mph 26.5 mph N/A   Clear
11:53 AM 51.1 °F - 25.0 °F 36% 30.23 in 10.0 mi North 10.4 mph 20.7 mph N/A   Clear
12:53 PM 54.0 °F - 25.0 °F 33% 30.22 in 10.0 mi North 8.1 mph 20.7 mph N/A   Clear
1:53 PM 55.9 °F - 25.0 °F 30% 30.20 in 10.0 mi Variable 4.6 mph - N/A   Clear
2:53 PM 59.0 °F - 23.0 °F 25% 30.19 in 10.0 mi North 12.7 mph 21.9 mph N/A   Clear
3:53 PM 60.1 °F - 21.9 °F 23% 30.17 in 10.0 mi NW 6.9 mph 19.6 mph N/A   Clear
4:53 PM 61.0 °F - 21.0 °F 21% 30.17 in 10.0 mi Variable 5.8 mph 17.3 mph N/A   Clear
5:53 PM 62.1 °F - 21.0 °F 21% 30.18 in 10.0 mi NNW 9.2 mph - N/A   Clear
6:53 PM 60.1 °F - 21.9 °F 23% 30.19 in 10.0 mi NNW 8.1 mph - N/A   Clear
7:53 PM 55.0 °F - 23.0 °F 29% 30.21 in 10.0 mi North 3.5 mph - N/A   Clear
8:53 PM 48.9 °F - 30.0 °F 48% 30.23 in 10.0 mi Calm Calm - N/A   Clear
9:53 PM 45.0 °F 43.5 °F 30.9 °F 58% 30.25 in 10.0 mi NNW 3.5 mph - N/A   Clear
10:53 PM 43.0 °F - 30.9 °F 62% 30.27 in 10.0 mi Calm Calm - N/A   Clear
11:53 PM 41.0 °F - 30.9 °F 67% 30.29 in 10.0 mi Calm Calm - N/A   Clear